Location: Altleiningen
(49.5078°N, 8.0741°E)
Time: 04:13:20
(UTC+00:00)

SL-4 R/B - Pass Details

Date: 03 March 2021
Orbit: 428 x 663 km, 51.6° (Epoch: 11 April)

Event Time Altitude Azimuth Distance (km) Brightness Sun altitude
Rises 18:11:05 0° 282° (WNW) 2,510 7.4 -10.1°
Reaches altitude 10° 18:13:18 10° 285° (WNW) 1,601 5.8 -10.4°
Maximum altitude 18:16:51 64° 8° (N) 493 1.7 -11.0°
Enters shadow 18:19:14 18° 87° (E) 1,128 3.0 -11.4°
